OpenBCM V1.13 (Linux)

Packet Radio Mailbox

DB0FHN

[JN59NK Nuernberg]

 Login: GUEST





  
CX2SA  > KEPS     04.09.26 05:34l 316 Lines 14990 Bytes #999 (0) @ AMSAT
BID : ORB26247.1
Read: OE5RCO DJ6UX GUEST
Subj: 2Line Orbital Elements 26247.AMSAT
Path: DB0FHN<OE2XZR<OE6XPE<DB0RKB<OK0NAG<F3KT<F1UBL<K7EK<K5DAT<VK3AT<VE3QBZ<
      VE3CGR<CX2SA
Sent: 260904/0024Z @:CX2SA.SAL.URY.SOAM #:3870 [Salto] FBB7.00e $:ORB26247.1
From: CX2SA@CX2SA.SAL.URY.SOAM
To  : KEPS@AMSAT


QST de W1STR

AMSAT Orbital Elements for Amateur Satellites in TLE Format
>From Orbital Analysis Office
New England Sci-Tech STEM Education Center
Natick MA September 04, 2026
To all radio amateurs


These element sets describe the orbits of various satellites
in use by the amateur radio community. For details see:
www.amsat.org/keplerian-elements-formats/

A daily update of element sets is available at:
www.amsat.org/tle/daily-bulletin.txt
or without bulletin text:
www.amsat.org/tle/dailytle.txt


AO-07
1 07530U 74089B   26246.52772061 -.00000053  00000-0 -41756-4 0  9990
2 07530 101.9921 260.5936 0012152 343.5499 183.3688 12.53699399370338
UO-11
1 14781U 84021B   26246.34444691  .00000813  00000-0  87973-4 0  9991
2 14781  97.8147 211.0902 0006107 290.6044  69.4519 14.90965871268777
LO-19
1 20442U 90005G   26246.53161013  .00000026  00000-0  25976-4 0  9997
2 20442  98.8833 270.4882 0011123 341.7577  18.3206 14.34141599913628
AO-27
1 22825U 93061C   26246.59376417  .00000031  00000-0  28854-4 0  9995
2 22825  98.6812 313.9524 0007580 224.6620 135.3952 14.30959123718218
FO-29
1 24278U 96046B   26246.16214900 -.00000040  00000-0 -18419-5 0  9995
2 24278  98.5181  84.3453 0348853 254.0426 102.2024 13.53277568483719
GO-32
1 25397U 98043D   26246.45519830  .00000011  00000-0  25077-4 0  9992
2 25397  99.0140 241.2127 0001595  34.3286 325.7995 14.24441079462475
ISS
1 25544U 98067A   26246.56303513  .00003925  00000-0  79431-4 0  9993
2 25544  51.6315 272.1807 0005017 103.2669 256.8879 15.48980167583909
NO-44
1 26931U 01043C   26245.89655315  .00000030  00000-0  42131-4 0  9998
2 26931  67.0507  43.2738 0005668 271.1600  88.8852 14.31980243301577
SO-50
1 27607U 02058C   26246.44033043  .00000550  00000-0  82640-4 0  9992
2 27607  64.5502 246.8434 0072636 248.0877 111.2497 14.83191838276069
CO-55
1 27844U 03031E   26246.01123856  .00000152  00000-0  84690-4 0  9997
2 27844  98.6769 253.6027 0008840 325.9306  34.1304 14.24375838202751
RS-22
1 27939U 03042A   26246.85789014  .00000807  00000-0  13217-3 0  9993
2 27939  98.3488  73.4592 0011894  24.8085  99.7302 14.73586966227132
CO-65
1 32785U 08021C   26246.71984948  .00002748  00000-0  17279-3 0  9996
2 32785  97.8361 229.8437 0010229 116.3849 243.8430 15.10080181997040
CO-66
1 32791U 08021J   26246.47777933  .00012282  00000-0  36152-3 0  9995
2 32791  97.7568 248.2813 0004152  63.8049 296.3620 15.35217426999298
RS-30
1 32953U 08025A   26246.80605618  .00000039  00000-0  20897-3 0  9992
2 32953  82.5043 306.5464 0020489 138.0530 222.2123 12.43182673829467
SRMSAT
1 37841U 11058D   26246.18399727  .00000358  00000-0  50299-4 0  9999
2 37841  19.9724 307.3668 0011772 343.1487  42.0039 14.11590090768850
ZACUBE-1
1 39417U 13066B   26246.38249574  .00003758  00000-0  28870-3 0  9993
2 39417  97.8090 209.1040 0041065 351.6320   8.4214 15.01709534692462
Delfi-N3xt
1 39428U 13066N   26246.72833075  .00004658  00000-0  40005-3 0  9992
2 39428  97.8288 166.9937 0071574 306.2848  53.1775 14.95978886686368
GOMX-1
1 39430U 13066Q   26246.82818251  .00001443  00000-0  22149-3 0  9993
2 39430  97.6444  82.3344 0127790 184.1366 175.8797 14.69663107681466
LO-74
1 39440U 13066AA  26246.29021819  .00002079  00000-0  19326-3 0  9990
2 39440  97.8966 195.6485 0058328 127.1434 233.5134 14.94208892688654
AO-73
1 39444U 13066AE  26246.38537963  .00004338  00000-0  26435-3 0  9995
2 39444  97.8366 219.5526 0033750 299.2079  60.5775 15.10467825691466
DTUSAT-2
1 40030U 14033W   26246.81024939  .00003934  00000-0  20924-3 0  9993
2 40030  98.0921 249.6039 0006917 339.6512  20.4442 15.15909056664590
LILACSAT-2
1 40908U 15049K   26246.89614235  .00012975  00000-0  20255-3 0  9999
2 40908  97.4581 286.8393 0005342 339.3246  20.7790 15.53944203607969
Lapan A3
1 41603U 16040E   26246.89457312  .00002064  00000-0  65868-4 0  9993
2 41603  97.1557 240.5043 0012150  92.8780 267.3854 15.33539601566874
CAS-2T
1 41847U 16066G   26246.63622646  .00000436  00000-0  71328-4 0  9996
2 41847  98.3766 321.4724 0340097 251.4369 104.9601 14.44824748516123
TechnoSat
1 42829U 17042E   26246.36333677  .00001944  00000-0  13951-3 0  9997
2 42829  97.4394  41.1147 0017397 181.4183 178.6998 15.05349721498460
AO-91
1 43017U 17073E   26246.56816977  .00005685  00000-0  24209-3 0  9996
2 43017  97.4583 112.1831 0149186  58.0787 303.4855 15.13750486477246
S-Net D
1 43186U 18014G   26246.69220757  .00002962  00000-0  15194-3 0  9996
2 43186  97.5261 150.9889 0009808 103.0805 257.1524 15.17297445470660
S-Net B
1 43187U 18014H   26246.70525149  .00002607  00000-0  13421-3 0  9999
2 43187  97.5266 150.9905 0010461  99.3291 260.9126 15.17265576470668
S-Net A
1 43188U 18014J   26246.69065765  .00003042  00000-0  15588-3 0  9991
2 43188  97.5277 151.2002 0010364 100.0114 260.2290 15.17305990470669
S-Net C
1 43189U 18014K   26246.18200107  .00002524  00000-0  13008-3 0  9996
2 43189  97.5295 150.7813 0011749  95.5367 264.7206 15.17252693469137
Ten-Koh
1 43677U 18084G   26246.47804383  .00001305  00000-0  10134-3 0  9996
2 43677  98.0757  82.1516 0008685 207.4292 152.6475 15.03215319427925
PO-101
1 43678U 18084H   26246.85405944  .00001092  00000-0  91396-4 0  9992
2 43678  98.1190  86.5253 0010795 266.6410  93.3578 15.00700149428011
QO-100
1 43700U 18090A   26246.60299455  .00000142  00000-0  00000+0 0  9998
2 43700   0.0171 225.7431 0002680 334.4790  25.4064  1.00273407 28460
MinXSS-2
1 43758U 18099A   26246.67902647  .00028842  00000-0  47258-3 0  9998
2 43758  97.4454 325.5518 0005310 340.5809  19.5241 15.52423718426281
AO-95
1 43770U 18099N   26246.62352672  .00006742  00000-0  24758-3 0  9999
2 43770  97.4306 306.6326 0009855  75.0527 285.1803 15.28219276425192
SNUSat 2
1 43782U 18099AA  26246.09020275  .00005167  00000-0  22308-3 0  9993
2 43782  97.3985 298.3037 0010630  31.6896 328.4979 15.22898934424881
SnugLite
1 43784U 18099AC  26246.14121885  .00005809  00000-0  21109-3 0  9991
2 43784  97.3793 299.7066 0003381  44.2458 315.9052 15.28661478425225
ITASat 1
1 43786U 18099AE  26246.58474773  .00003521  00000-0  16669-3 0  9992
2 43786  97.3955 296.5477 0013947  80.8270 279.4543 15.19910914424810
EAGLET 1
1 43790U 18099AJ  26246.08282704  .00002599  00000-0  14875-3 0  9994
2 43790  97.4160 293.6847 0012651  78.7657 281.4996 15.13443589424110
ESEO
1 43792U 18099AL  26246.53596684  .00000239  00000-0  21191-4 0  9990
2 43792  97.3916 280.5574 0013588  68.8225 291.4452 15.04439754423580
JO-97
1 43803U 18099AX  26245.67914214  .00011054  00000-0  31782-3 0  9993
2 43803  97.4050 308.8805 0005070  11.0171 349.1183 15.35966712425511
Suomi 100
1 43804U 18099AY  26246.59494242  .00007647  00000-0  26495-3 0  9998
2 43804  97.4107 306.7573 0009503  12.5372 347.6103 15.30081383425408
ISAT
1 43879U 18111D   26246.78352383  .00244986  00000-0  88785-3 0  9994
2 43879  97.5798 189.1593 0007033 114.4887 245.7119 15.87922249423535
UWE-4
1 43880U 18111E   26245.76187485  .00027654  00000-0  47817-3 0  9994
2 43880  97.5814 177.9955 0009026  57.7499 302.4626 15.50890010422785
Prox-1
1 44339U 19036A   26246.46850933  .00007412  00000-0  68096-3 0  9996
2 44339  23.9959 310.6432 0005000 218.1218 141.8929 14.92262855385171
Taurus 1
1 44530U 19059C   26246.79718844  .00003461  00000-0  54962-3 0  9991
2 44530  98.6496  56.5839 0009415  68.4031 291.8177 14.72804908370218
TO-108
1 44881U 19093C   26246.86494977 -.00000113  00000-0 -67428-5 0  9990
2 44881  97.7464 317.1570 0013201 181.8735 178.2434 14.86618500363109
RS-44
1 44909U 19096E   26246.57545216  .00000009  00000-0 -30063-5 0  9993
2 44909  82.5190 287.6230 0216738 321.3347  37.2403 12.79749121312379
SALSAT
1 46495U 20068K   26246.48051839  .00004593  00000-0  15704-3 0  9993
2 46495  97.8890 254.3854 0010379  37.1076 323.0879 15.30786953327333
CSS (TIANHE-1)
1 48274U 21035A   26246.82758672  .00013897  00000-0  17372-3 0  9992
2 48274  41.4678 204.6008 0002189 256.3390 103.7205 15.59555987305448
TeikyoSat 4
1 49396U 21102B   26246.33510093  .00001018  00000-0  66789-4 0  9991
2 49396  97.3642 272.7780 0012755  31.2259 328.9726 15.09742558264510
Z-Sat
1 49399U 21102E   26246.81075476  .00001819  00000-0  90427-4 0  9993
2 49399  97.3283 279.7536 0015733 338.8723  21.1859 15.18789061265375
KOSEN 1
1 49402U 21102H   26246.10496753  .00004025  00000-0  15068-3 0  9994
2 49402  97.3123 286.7751 0011589 294.2610  65.7419 15.27809841265910
HO-113
1 50466U 21131B   26246.84363024  .00000318  00000-0  11174-3 0  9998
2 50466  98.4971 338.8066 0003400 207.2946 152.8065 14.41418064246442
SNUGLITE 2
1 52899U 22065F   26246.67602941  .00000547  00000-0  11254-3 0  9995
2 52899  98.2314  31.4222 0008425 131.5931 228.5994 14.64469377222486
UmKA 1 (RS40S)
1 57172U 23091G   26246.83107806  .00003517  00000-0  15885-3 0  9996
2 57172  97.4973 305.2365 0011999 197.6406 162.4415 15.21580397175961
CubeBel-2 (EU11S)
1 57175U 23091K   26246.79411036  .00008042  00000-0  27189-3 0  9995
2 57175  97.4972 310.7809 0009249 186.7452 173.3666 15.30869151176320
RS-38S
1 57189U 23091Z   26246.78388132  .00010935  00000-0  29155-3 0  9998
2 57189  97.5018 317.9471 0007814 141.3373 218.8432 15.38304373176768
SONATE-2
1 59112U 24043Q   26246.37449622  .00035776  00000-0  36751-3 0  9991
2 59112  97.5616  41.9712 0005084 269.4796  90.5880 15.64823473140095
GRBBeta
1 60237U 24128C   26246.72112507  .00001490  00000-0  11232-3 0  9996
2 60237  61.9899 300.6277 0029287 151.8919 208.3763 15.07122543118109
Curium One
1 60242U 24128H   26246.08862945  .00003432  00000-0  20158-3 0  9994
2 60242  61.9781 289.6475 0028458 146.3526 213.9385 15.13508312118249
